Year,Month,Day,Hour,Minute,Value (Times are PST for temperature in C)
2016,06,26,00,00,12.80
2016,06,26,00,01,12.80
2016,06,26,00,02,12.80
2016,06,26,00,03,12.80
2016,06,26,00,04,12.80
2016,06,26,00,05,12.80
2016,06,26,00,06,12.70
2016,06,26,00,07,12.70
2016,06,26,00,08,12.70
2016,06,26,00,09,12.70
2016,06,26,00,10,12.70
2016,06,26,00,11,12.70
2016,06,26,00,12,12.60
2016,06,26,00,13,12.60
2016,06,26,00,14,12.60
2016,06,26,00,15,12.60
2016,06,26,00,16,12.60
2016,06,26,00,17,12.60
2016,06,26,00,18,12.50
2016,06,26,00,19,12.50
2016,06,26,00,20,12.50
2016,06,26,00,21,12.50
2016,06,26,00,22,12.50
2016,06,26,00,23,12.50
2016,06,26,00,24,12.40
2016,06,26,00,25,12.50
2016,06,26,00,26,12.40
2016,06,26,00,27,12.50
2016,06,26,00,28,12.50
2016,06,26,00,29,12.50
2016,06,26,00,30,12.50
2016,06,26,00,31,12.40
2016,06,26,00,32,12.40
2016,06,26,00,33,12.40
2016,06,26,00,34,12.40
2016,06,26,00,35,12.40
2016,06,26,00,36,12.40
2016,06,26,00,37,12.40
2016,06,26,00,38,12.40
2016,06,26,00,39,12.40
2016,06,26,00,40,12.40
2016,06,26,00,41,12.30
2016,06,26,00,42,12.30
2016,06,26,00,43,12.30
2016,06,26,00,44,12.30
2016,06,26,00,45,12.30
2016,06,26,00,46,12.30
2016,06,26,00,47,12.30
2016,06,26,00,48,12.30
2016,06,26,00,49,12.30
2016,06,26,00,50,12.30
2016,06,26,00,51,12.20
2016,06,26,00,52,12.20
2016,06,26,00,53,12.20
2016,06,26,00,54,12.20
2016,06,26,00,55,12.20
2016,06,26,00,56,12.20
2016,06,26,00,57,12.10
2016,06,26,00,58,12.10
2016,06,26,00,59,12.10
2016,06,26,01,00,12.10
2016,06,26,01,01,12.00
2016,06,26,01,02,12.00
2016,06,26,01,03,12.00
2016,06,26,01,04,12.00
2016,06,26,01,05,11.90
2016,06,26,01,06,11.90
2016,06,26,01,07,11.90
2016,06,26,01,08,11.90
2016,06,26,01,09,11.90
2016,06,26,01,10,11.80
2016,06,26,01,11,11.80
2016,06,26,01,12,11.80
2016,06,26,01,13,11.80
2016,06,26,01,14,11.80
2016,06,26,01,15,11.80
2016,06,26,01,16,11.80
2016,06,26,01,17,11.70
2016,06,26,01,18,11.70
2016,06,26,01,19,11.70
2016,06,26,01,20,11.70
2016,06,26,01,21,11.70
2016,06,26,01,22,11.70
2016,06,26,01,23,11.70
2016,06,26,01,24,11.70
2016,06,26,01,25,11.60
2016,06,26,01,26,11.60
2016,06,26,01,27,11.60
2016,06,26,01,28,11.60
2016,06,26,01,29,11.60
2016,06,26,01,30,11.60
2016,06,26,01,31,11.60
2016,06,26,01,32,11.60
2016,06,26,01,33,11.50
2016,06,26,01,34,11.50
2016,06,26,01,35,11.50
2016,06,26,01,36,11.50
2016,06,26,01,37,11.50
2016,06,26,01,38,11.50
2016,06,26,01,39,11.50
2016,06,26,01,40,11.50
2016,06,26,01,41,11.50
2016,06,26,01,42,11.40
2016,06,26,01,43,11.40
2016,06,26,01,44,11.40
2016,06,26,01,45,11.40
2016,06,26,01,46,11.40
2016,06,26,01,47,11.40
2016,06,26,01,48,11.40
2016,06,26,01,49,11.30
2016,06,26,01,50,11.30
2016,06,26,01,51,11.30
2016,06,26,01,52,11.30
2016,06,26,01,53,11.30
2016,06,26,01,54,11.30
2016,06,26,01,55,11.30
2016,06,26,01,56,11.30
2016,06,26,01,57,11.30
2016,06,26,01,58,11.20
2016,06,26,01,59,11.20
2016,06,26,02,00,11.20
2016,06,26,02,01,11.20
2016,06,26,02,02,11.20
2016,06,26,02,03,11.20
2016,06,26,02,04,11.20
2016,06,26,02,05,11.10
2016,06,26,02,06,11.10
2016,06,26,02,07,11.10
2016,06,26,02,08,11.10
2016,06,26,02,09,11.10
2016,06,26,02,10,11.00
2016,06,26,02,11,11.00
2016,06,26,02,12,11.00
2016,06,26,02,13,11.00
2016,06,26,02,14,10.90
2016,06,26,02,15,10.90
2016,06,26,02,16,10.90
2016,06,26,02,17,10.90
2016,06,26,02,18,10.90
2016,06,26,02,19,10.90
2016,06,26,02,20,10.80
2016,06,26,02,21,10.80
2016,06,26,02,22,10.80
2016,06,26,02,23,10.80
2016,06,26,02,24,10.80
2016,06,26,02,25,10.70
2016,06,26,02,26,10.70
2016,06,26,02,27,10.70
2016,06,26,02,28,10.70
2016,06,26,02,29,10.70
2016,06,26,02,30,10.70
2016,06,26,02,31,10.70
2016,06,26,02,32,10.70
2016,06,26,02,33,10.70
2016,06,26,02,34,10.70
2016,06,26,02,35,10.70
2016,06,26,02,36,10.70
2016,06,26,02,37,10.60
2016,06,26,02,38,10.60
2016,06,26,02,39,10.60
2016,06,26,02,40,10.60
2016,06,26,02,41,10.60
2016,06,26,02,42,10.60
2016,06,26,02,43,10.70
2016,06,26,02,44,10.70
2016,06,26,02,45,10.70
2016,06,26,02,46,10.70
2016,06,26,02,47,10.70
2016,06,26,02,48,10.70
2016,06,26,02,49,10.70
2016,06,26,02,50,10.70
2016,06,26,02,51,10.70
2016,06,26,02,52,10.70
2016,06,26,02,53,10.70
2016,06,26,02,54,10.60
2016,06,26,02,55,10.60
2016,06,26,02,56,10.60
2016,06,26,02,57,10.60
2016,06,26,02,58,10.60
2016,06,26,02,59,10.60
2016,06,26,03,00,10.60
2016,06,26,03,01,10.60
2016,06,26,03,02,10.60
2016,06,26,03,03,10.60
2016,06,26,03,04,10.60
2016,06,26,03,05,10.50
2016,06,26,03,06,10.50
2016,06,26,03,07,10.50
2016,06,26,03,08,10.50
2016,06,26,03,09,10.50
2016,06,26,03,10,10.50
2016,06,26,03,11,10.50
2016,06,26,03,12,10.50
2016,06,26,03,13,10.40
2016,06,26,03,14,10.40
2016,06,26,03,15,10.40
2016,06,26,03,16,10.40
2016,06,26,03,17,10.40
2016,06,26,03,18,10.40
2016,06,26,03,19,10.40
2016,06,26,03,20,10.40
2016,06,26,03,21,10.40
2016,06,26,03,22,10.40
2016,06,26,03,23,10.30
2016,06,26,03,24,10.30
2016,06,26,03,25,10.30
2016,06,26,03,26,10.30
2016,06,26,03,27,10.30
2016,06,26,03,28,10.30
2016,06,26,03,29,10.30
2016,06,26,03,30,10.30
2016,06,26,03,31,10.30
2016,06,26,03,32,10.30
2016,06,26,03,33,10.30
2016,06,26,03,34,10.30
2016,06,26,03,35,10.30
2016,06,26,03,36,10.30
2016,06,26,03,37,10.30
2016,06,26,03,38,10.20
2016,06,26,03,39,10.20
2016,06,26,03,40,10.20
2016,06,26,03,41,10.20
2016,06,26,03,42,10.20
2016,06,26,03,43,10.20
2016,06,26,03,44,10.20
2016,06,26,03,45,10.20
2016,06,26,03,46,10.20
2016,06,26,03,47,10.20
2016,06,26,03,48,10.20
2016,06,26,03,49,10.10
2016,06,26,03,50,10.10
2016,06,26,03,51,10.10
2016,06,26,03,52,10.10
2016,06,26,03,53,10.10
2016,06,26,03,54,10.10
2016,06,26,03,55,10.10
2016,06,26,03,56,10.10
2016,06,26,03,57,10.20
2016,06,26,03,58,10.20
2016,06,26,03,59,10.20
2016,06,26,04,00,10.20
2016,06,26,04,01,10.20
2016,06,26,04,02,10.10
2016,06,26,04,03,10.10
2016,06,26,04,04,10.10
2016,06,26,04,05,10.10
2016,06,26,04,06,10.10
2016,06,26,04,07,10.10
2016,06,26,04,08,10.10
2016,06,26,04,09,10.10
2016,06,26,04,10,10.10
2016,06,26,04,11,10.10
2016,06,26,04,12,10.10
2016,06,26,04,13,10.10
2016,06,26,04,14,10.00
2016,06,26,04,15,10.00
2016,06,26,04,16,10.00
2016,06,26,04,17,10.00
2016,06,26,04,18,10.00
2016,06,26,04,19,10.00
2016,06,26,04,20,9.90
2016,06,26,04,21,9.90
2016,06,26,04,22,9.90
2016,06,26,04,23,9.90
2016,06,26,04,24,9.90
2016,06,26,04,25,9.90
2016,06,26,04,26,9.90
2016,06,26,04,27,9.90
2016,06,26,04,28,9.90
2016,06,26,04,29,9.80
2016,06,26,04,30,9.80
2016,06,26,04,31,9.80
2016,06,26,04,32,9.80
2016,06,26,04,33,9.80
2016,06,26,04,34,9.80
2016,06,26,04,35,9.80
2016,06,26,04,36,9.80
2016,06,26,04,37,9.80
2016,06,26,04,38,9.80
2016,06,26,04,39,9.80
2016,06,26,04,40,9.80
2016,06,26,04,41,9.80
2016,06,26,04,42,9.80
2016,06,26,04,43,9.80
2016,06,26,04,44,9.80
2016,06,26,04,45,9.90
2016,06,26,04,46,9.90
2016,06,26,04,47,9.90
2016,06,26,04,48,9.90
2016,06,26,04,49,9.90
2016,06,26,04,50,9.90
2016,06,26,04,51,9.90
2016,06,26,04,52,9.90
2016,06,26,04,53,9.90
2016,06,26,04,54,9.90
2016,06,26,04,55,9.90
2016,06,26,04,56,9.90
2016,06,26,04,57,9.90
2016,06,26,04,58,9.90
2016,06,26,04,59,9.90
2016,06,26,05,00,9.90
2016,06,26,05,01,9.90
2016,06,26,05,02,10.00
2016,06,26,05,03,10.00
2016,06,26,05,04,10.00
2016,06,26,05,05,10.00
2016,06,26,05,06,10.00
2016,06,26,05,07,10.00
2016,06,26,05,08,10.00
2016,06,26,05,09,10.10
2016,06,26,05,10,10.10
2016,06,26,05,11,10.10
2016,06,26,05,12,10.10
2016,06,26,05,13,10.00
2016,06,26,05,14,10.00
2016,06,26,05,15,10.00
2016,06,26,05,16,10.00
2016,06,26,05,17,10.10
2016,06,26,05,18,10.00
2016,06,26,05,19,10.00
2016,06,26,05,20,10.00
2016,06,26,05,21,10.00
2016,06,26,05,22,10.00
2016,06,26,05,23,10.00
2016,06,26,05,24,9.90
2016,06,26,05,25,9.90
2016,06,26,05,26,9.90
2016,06,26,05,27,9.90
2016,06,26,05,28,9.90
2016,06,26,05,29,9.90
2016,06,26,05,30,9.90
2016,06,26,05,31,9.90
2016,06,26,05,32,9.90
2016,06,26,05,33,9.90
2016,06,26,05,34,9.90
2016,06,26,05,35,9.90
2016,06,26,05,36,9.90
2016,06,26,05,37,9.80
2016,06,26,05,38,9.80
2016,06,26,05,39,9.80
2016,06,26,05,40,9.80
2016,06,26,05,41,9.80
2016,06,26,05,42,9.80
2016,06,26,05,43,9.80
2016,06,26,05,44,9.80
2016,06,26,05,45,9.80
2016,06,26,05,46,9.80
2016,06,26,05,47,9.80
2016,06,26,05,48,9.80
2016,06,26,05,49,9.80
2016,06,26,05,50,9.80
2016,06,26,05,51,9.80
2016,06,26,05,52,9.90
2016,06,26,05,53,9.90
2016,06,26,05,54,9.90
2016,06,26,05,55,9.90
2016,06,26,05,56,9.90
2016,06,26,05,57,9.90
2016,06,26,05,58,9.90
2016,06,26,05,59,9.90
2016,06,26,06,00,9.90
2016,06,26,06,01,9.90
2016,06,26,06,02,9.90
2016,06,26,06,03,9.90
2016,06,26,06,04,9.90
2016,06,26,06,05,9.90
2016,06,26,06,06,9.90
2016,06,26,06,07,9.90
2016,06,26,06,08,10.00
2016,06,26,06,09,10.00
2016,06,26,06,10,10.00
2016,06,26,06,11,10.00
2016,06,26,06,12,10.10
2016,06,26,06,13,10.10
2016,06,26,06,14,10.10
2016,06,26,06,15,10.10
2016,06,26,06,16,10.20
2016,06,26,06,17,10.20
2016,06,26,06,18,10.20
2016,06,26,06,19,10.20
2016,06,26,06,20,10.20
2016,06,26,06,21,10.20
2016,06,26,06,22,10.20
2016,06,26,06,23,10.20
2016,06,26,06,24,10.30
2016,06,26,06,25,10.30
2016,06,26,06,26,10.30
2016,06,26,06,27,10.30
2016,06,26,06,28,10.40
2016,06,26,06,29,10.40
2016,06,26,06,30,10.40
2016,06,26,06,31,10.50
2016,06,26,06,32,10.50
2016,06,26,06,33,10.60
2016,06,26,06,34,10.60
2016,06,26,06,35,10.70
2016,06,26,06,36,10.70
2016,06,26,06,37,10.70
2016,06,26,06,38,10.80
2016,06,26,06,39,10.80
2016,06,26,06,40,10.80
2016,06,26,06,41,10.90
2016,06,26,06,42,10.90
2016,06,26,06,43,10.90
2016,06,26,06,44,11.00
2016,06,26,06,45,11.10
2016,06,26,06,46,11.10
2016,06,26,06,47,11.20
2016,06,26,06,48,11.20
2016,06,26,06,49,11.30
2016,06,26,06,50,11.30
2016,06,26,06,51,11.40
2016,06,26,06,52,11.40
2016,06,26,06,53,11.50
2016,06,26,06,54,11.50
2016,06,26,06,55,11.60
2016,06,26,06,56,11.60
2016,06,26,06,57,11.70
2016,06,26,06,58,11.70
2016,06,26,06,59,11.80
2016,06,26,07,00,11.80
2016,06,26,07,01,11.80
2016,06,26,07,02,11.90
2016,06,26,07,03,11.90
2016,06,26,07,04,12.00
2016,06,26,07,05,12.00
2016,06,26,07,06,12.10
2016,06,26,07,07,12.10
2016,06,26,07,08,12.20
2016,06,26,07,09,12.20
2016,06,26,07,10,12.30
2016,06,26,07,11,12.30
2016,06,26,07,12,12.40
2016,06,26,07,13,12.40
2016,06,26,07,14,12.50
2016,06,26,07,15,12.60
2016,06,26,07,16,12.60
2016,06,26,07,17,12.70
2016,06,26,07,18,12.70
2016,06,26,07,19,12.80
2016,06,26,07,20,12.90
2016,06,26,07,21,12.90
2016,06,26,07,22,13.00
2016,06,26,07,23,13.10
2016,06,26,07,24,13.20
2016,06,26,07,25,13.30
2016,06,26,07,26,13.40
2016,06,26,07,27,13.50
2016,06,26,07,28,13.60
2016,06,26,07,29,13.70
2016,06,26,07,30,13.80
2016,06,26,07,31,13.80
2016,06,26,07,32,13.90
2016,06,26,07,33,13.90
2016,06,26,07,34,14.00
2016,06,26,07,35,14.00
2016,06,26,07,36,14.10
2016,06,26,07,37,14.10
2016,06,26,07,38,14.10
2016,06,26,07,39,14.20
2016,06,26,07,40,14.20
2016,06,26,07,41,14.20
2016,06,26,07,42,14.20
2016,06,26,07,43,14.30
2016,06,26,07,44,14.30
2016,06,26,07,45,14.30
2016,06,26,07,46,14.30
2016,06,26,07,47,14.30
2016,06,26,07,48,14.30
2016,06,26,07,49,14.30
2016,06,26,07,50,14.30
2016,06,26,07,51,14.30
2016,06,26,07,52,14.30
2016,06,26,07,53,14.30
2016,06,26,07,54,14.40
2016,06,26,07,55,14.40
2016,06,26,07,56,14.40
2016,06,26,07,57,14.40
2016,06,26,07,58,14.40
2016,06,26,07,59,14.40
2016,06,26,08,00,14.40
2016,06,26,08,01,14.40
2016,06,26,08,02,14.40
2016,06,26,08,03,14.40
2016,06,26,08,04,14.40
2016,06,26,08,05,14.40
2016,06,26,08,06,14.40
2016,06,26,08,07,14.50
2016,06,26,08,08,14.50
2016,06,26,08,09,14.50
2016,06,26,08,10,14.60
2016,06,26,08,11,14.60
2016,06,26,08,12,14.60
2016,06,26,08,13,14.60
2016,06,26,08,14,14.70
2016,06,26,08,15,14.70
2016,06,26,08,16,14.70
2016,06,26,08,17,14.70
2016,06,26,08,18,14.70
2016,06,26,08,19,14.70
2016,06,26,08,20,14.80
2016,06,26,08,21,14.80
2016,06,26,08,22,14.80
2016,06,26,08,23,14.80
2016,06,26,08,24,14.80
2016,06,26,08,25,14.80
2016,06,26,08,26,14.80
2016,06,26,08,27,14.80
2016,06,26,08,28,14.80
2016,06,26,08,29,14.80
2016,06,26,08,30,14.90
2016,06,26,08,31,14.90
2016,06,26,08,32,15.00
2016,06,26,08,33,15.00
2016,06,26,08,34,15.10
2016,06,26,08,35,15.20
2016,06,26,08,36,15.20
2016,06,26,08,37,15.30
2016,06,26,08,38,15.30
2016,06,26,08,39,15.40
2016,06,26,08,40,15.50
2016,06,26,08,41,15.50
2016,06,26,08,42,15.60
2016,06,26,08,43,15.60
2016,06,26,08,44,15.70
2016,06,26,08,45,15.80
2016,06,26,08,46,15.80
2016,06,26,08,47,15.90
2016,06,26,08,48,16.00
2016,06,26,08,49,16.00
2016,06,26,08,50,16.10
2016,06,26,08,51,16.20
2016,06,26,08,52,16.30
2016,06,26,08,53,16.30
2016,06,26,08,54,16.40
2016,06,26,08,55,16.40
2016,06,26,08,56,16.50
2016,06,26,08,57,16.50
2016,06,26,08,58,16.60
2016,06,26,08,59,16.60
2016,06,26,09,00,16.60
2016,06,26,09,01,16.70
2016,06,26,09,02,16.70
2016,06,26,09,03,16.70
2016,06,26,09,04,16.70
2016,06,26,09,05,16.70
2016,06,26,09,06,16.70
2016,06,26,09,07,16.70
2016,06,26,09,08,16.70
2016,06,26,09,09,16.70
2016,06,26,09,10,16.70
2016,06,26,09,11,16.70
2016,06,26,09,12,16.70
2016,06,26,09,13,16.70
2016,06,26,09,14,16.60
2016,06,26,09,15,16.70
2016,06,26,09,16,16.70
2016,06,26,09,17,16.70
2016,06,26,09,18,16.70
2016,06,26,09,19,16.70
2016,06,26,09,20,16.70
2016,06,26,09,21,16.70
2016,06,26,09,22,16.70
2016,06,26,09,23,16.70
2016,06,26,09,24,16.70
2016,06,26,09,25,16.70
2016,06,26,09,26,16.80
2016,06,26,09,27,16.80
2016,06,26,09,28,16.80
2016,06,26,09,29,16.90
2016,06,26,09,30,16.90
2016,06,26,09,31,17.00
2016,06,26,09,32,17.10
2016,06,26,09,33,17.10
2016,06,26,09,34,17.20
2016,06,26,09,35,17.30
2016,06,26,09,36,17.40
2016,06,26,09,37,17.40
2016,06,26,09,38,17.40
2016,06,26,09,39,17.40
2016,06,26,09,40,17.40
2016,06,26,09,41,17.50
2016,06,26,09,42,17.60
2016,06,26,09,43,17.60
2016,06,26,09,44,17.70
2016,06,26,09,45,17.70
2016,06,26,09,46,17.80
2016,06,26,09,47,17.80
2016,06,26,09,48,17.80
2016,06,26,09,49,17.80
2016,06,26,09,50,17.80
2016,06,26,09,51,17.70
2016,06,26,09,52,17.70
2016,06,26,09,53,17.70
2016,06,26,09,54,17.70
2016,06,26,09,55,17.70
2016,06,26,09,56,17.80
2016,06,26,09,57,17.80
2016,06,26,09,58,17.90
2016,06,26,09,59,18.00
2016,06,26,10,00,18.00
2016,06,26,10,01,18.10
2016,06,26,10,02,18.10
2016,06,26,10,03,18.10
2016,06,26,10,04,18.10
2016,06,26,10,05,18.10
2016,06,26,10,06,18.20
2016,06,26,10,07,18.20
2016,06,26,10,08,18.20
2016,06,26,10,09,18.30
2016,06,26,10,10,18.30
2016,06,26,10,11,18.30
2016,06,26,10,12,18.40
2016,06,26,10,13,18.50
2016,06,26,10,14,18.50
2016,06,26,10,15,18.60
2016,06,26,10,16,18.70
2016,06,26,10,17,18.80
2016,06,26,10,18,18.80
2016,06,26,10,19,18.90
2016,06,26,10,20,18.90
2016,06,26,10,21,18.90
2016,06,26,10,22,18.90
2016,06,26,10,23,18.90
2016,06,26,10,24,18.90
2016,06,26,10,25,18.90
2016,06,26,10,26,19.00
2016,06,26,10,27,19.10
2016,06,26,10,28,19.20
2016,06,26,10,29,19.20
2016,06,26,10,30,19.30
2016,06,26,10,31,19.30
2016,06,26,10,32,19.30
2016,06,26,10,33,19.30
2016,06,26,10,34,19.30
2016,06,26,10,35,19.40
2016,06,26,10,36,19.40
2016,06,26,10,37,19.40
2016,06,26,10,38,19.40
2016,06,26,10,39,19.50
2016,06,26,10,40,19.60
2016,06,26,10,41,19.60
2016,06,26,10,42,19.60
2016,06,26,10,43,19.60
2016,06,26,10,44,19.70
2016,06,26,10,45,19.70
2016,06,26,10,46,19.70
2016,06,26,10,47,19.80
2016,06,26,10,48,19.80
2016,06,26,10,49,19.90
2016,06,26,10,50,20.00
2016,06,26,10,51,20.10
2016,06,26,10,52,20.10
2016,06,26,10,53,20.20
2016,06,26,10,54,20.20
2016,06,26,10,55,20.30
2016,06,26,10,56,20.40
2016,06,26,10,57,20.50
2016,06,26,10,58,20.60
2016,06,26,10,59,20.70
2016,06,26,11,00,20.80
2016,06,26,11,01,20.90
2016,06,26,11,02,20.90
2016,06,26,11,03,21.00
2016,06,26,11,04,21.00
2016,06,26,11,05,21.10
2016,06,26,11,06,21.10
2016,06,26,11,07,21.20
2016,06,26,11,08,21.20
2016,06,26,11,09,21.30
2016,06,26,11,10,21.30
2016,06,26,11,11,21.20
2016,06,26,11,12,21.20
2016,06,26,11,13,21.20
2016,06,26,11,14,21.20
2016,06,26,11,15,21.10
2016,06,26,11,16,21.10
2016,06,26,11,17,21.00
2016,06,26,11,18,21.00
2016,06,26,11,19,20.90
2016,06,26,11,20,20.90
2016,06,26,11,21,20.90
2016,06,26,11,22,20.90
2016,06,26,11,23,20.90
2016,06,26,11,24,20.90
2016,06,26,11,25,20.90
2016,06,26,11,26,20.90
2016,06,26,11,27,21.00
2016,06,26,11,28,21.10
2016,06,26,11,29,21.10
2016,06,26,11,30,21.20
2016,06,26,11,31,21.30
2016,06,26,11,32,21.30
2016,06,26,11,33,21.40
2016,06,26,11,34,21.50
2016,06,26,11,35,21.50
2016,06,26,11,36,21.60
2016,06,26,11,37,21.70
2016,06,26,11,38,21.70
2016,06,26,11,39,21.70
2016,06,26,11,40,21.80
2016,06,26,11,41,21.80
2016,06,26,11,42,21.90
2016,06,26,11,43,22.00
2016,06,26,11,44,22.00
2016,06,26,11,45,22.10
2016,06,26,11,46,22.10
2016,06,26,11,47,22.20
2016,06,26,11,48,22.20
2016,06,26,11,49,22.30
2016,06,26,11,50,22.30
2016,06,26,11,51,22.20
2016,06,26,11,52,22.10
2016,06,26,11,53,22.00
2016,06,26,11,54,21.90
2016,06,26,11,55,21.90
2016,06,26,11,56,21.80
2016,06,26,11,57,21.70
2016,06,26,11,58,21.70
2016,06,26,11,59,21.60
2016,06,26,12,00,21.40
2016,06,26,12,01,21.30
2016,06,26,12,02,21.30
2016,06,26,12,03,21.20
2016,06,26,12,04,21.10
2016,06,26,12,05,21.00
2016,06,26,12,06,20.90
2016,06,26,12,07,20.80
2016,06,26,12,08,20.80
2016,06,26,12,09,20.90
2016,06,26,12,10,20.90
2016,06,26,12,11,20.90
2016,06,26,12,12,20.90
2016,06,26,12,13,20.90
2016,06,26,12,14,20.80
2016,06,26,12,15,20.80
2016,06,26,12,16,20.80
2016,06,26,12,17,20.80
2016,06,26,12,18,20.80
2016,06,26,12,19,20.80
2016,06,26,12,20,20.80
2016,06,26,12,21,20.70
2016,06,26,12,22,20.70
2016,06,26,12,23,20.70
2016,06,26,12,24,20.80
2016,06,26,12,25,20.80
2016,06,26,12,26,20.80
2016,06,26,12,27,20.80
2016,06,26,12,28,20.80
2016,06,26,12,29,20.80
2016,06,26,12,30,21.00
2016,06,26,12,31,21.10
2016,06,26,12,32,21.20
2016,06,26,12,33,21.30
2016,06,26,12,34,21.40
2016,06,26,12,35,21.40
2016,06,26,12,36,21.50
2016,06,26,12,37,21.60
2016,06,26,12,38,21.70
2016,06,26,12,39,21.80
2016,06,26,12,40,21.90
2016,06,26,12,41,22.00
2016,06,26,12,42,22.10
2016,06,26,12,43,22.20
2016,06,26,12,44,22.40
2016,06,26,12,45,22.50
2016,06,26,12,46,22.50
2016,06,26,12,47,22.60
2016,06,26,12,48,22.70
2016,06,26,12,49,22.70
2016,06,26,12,50,22.80
2016,06,26,12,51,22.80
2016,06,26,12,52,22.90
2016,06,26,12,53,22.90
2016,06,26,12,54,23.00
2016,06,26,12,55,23.00
2016,06,26,12,56,23.00
2016,06,26,12,57,23.10
2016,06,26,12,58,23.10
2016,06,26,12,59,23.10
2016,06,26,13,00,23.20
2016,06,26,13,01,23.20
2016,06,26,13,02,23.30
2016,06,26,13,03,23.40
2016,06,26,13,04,23.40
2016,06,26,13,05,23.40
2016,06,26,13,06,23.40
2016,06,26,13,07,23.40
2016,06,26,13,08,23.40
2016,06,26,13,09,23.50
2016,06,26,13,10,23.40
2016,06,26,13,11,23.40
2016,06,26,13,12,23.30
2016,06,26,13,13,23.20
2016,06,26,13,14,23.20
2016,06,26,13,15,23.10
2016,06,26,13,16,23.00
2016,06,26,13,17,23.00
2016,06,26,13,18,22.90
2016,06,26,13,19,23.00
2016,06,26,13,20,23.00
2016,06,26,13,21,23.10
2016,06,26,13,22,23.20
2016,06,26,13,23,23.30
2016,06,26,13,24,23.40
2016,06,26,13,25,23.50
2016,06,26,13,26,23.50
2016,06,26,13,27,23.60
2016,06,26,13,28,23.60
2016,06,26,13,29,23.60
2016,06,26,13,30,23.60
2016,06,26,13,31,23.50
2016,06,26,13,32,23.50
2016,06,26,13,33,23.50
2016,06,26,13,34,23.40
2016,06,26,13,35,23.30
2016,06,26,13,36,23.20
2016,06,26,13,37,23.20
2016,06,26,13,38,23.10
2016,06,26,13,39,23.00
2016,06,26,13,40,22.90
2016,06,26,13,41,22.90
2016,06,26,13,42,22.90
2016,06,26,13,43,22.90
2016,06,26,13,44,23.00
2016,06,26,13,45,23.00
2016,06,26,13,46,23.10
2016,06,26,13,47,23.10
2016,06,26,13,48,23.20
2016,06,26,13,49,23.30
2016,06,26,13,50,23.40
2016,06,26,13,51,23.40
2016,06,26,13,52,23.40
2016,06,26,13,53,23.50
2016,06,26,13,54,23.60
2016,06,26,13,55,23.60
2016,06,26,13,56,23.70
2016,06,26,13,57,23.80
2016,06,26,13,58,23.90
2016,06,26,13,59,23.90
2016,06,26,14,00,23.90
2016,06,26,14,01,23.80
2016,06,26,14,02,23.70
2016,06,26,14,03,23.60
2016,06,26,14,04,23.50
2016,06,26,14,05,23.40
2016,06,26,14,06,23.40
2016,06,26,14,07,23.40
2016,06,26,14,08,23.30
2016,06,26,14,09,23.30
2016,06,26,14,10,23.30
2016,06,26,14,11,23.30
2016,06,26,14,12,23.30
2016,06,26,14,13,23.30
2016,06,26,14,14,23.30
2016,06,26,14,15,23.40
2016,06,26,14,16,23.40
2016,06,26,14,17,23.50
2016,06,26,14,18,23.50
2016,06,26,14,19,23.60
2016,06,26,14,20,23.60
2016,06,26,14,21,23.70
2016,06,26,14,22,23.80
2016,06,26,14,23,23.80
2016,06,26,14,24,23.80
2016,06,26,14,25,23.90
2016,06,26,14,26,23.90
2016,06,26,14,27,24.00
2016,06,26,14,28,24.00
2016,06,26,14,29,24.10
2016,06,26,14,30,24.10
2016,06,26,14,31,24.10
2016,06,26,14,32,24.10
2016,06,26,14,33,24.10
2016,06,26,14,34,24.20
2016,06,26,14,35,24.20
2016,06,26,14,36,24.30
2016,06,26,14,37,24.30
2016,06,26,14,38,24.30
2016,06,26,14,39,24.30
2016,06,26,14,40,24.30
2016,06,26,14,41,24.30
2016,06,26,14,42,24.20
2016,06,26,14,43,24.20
2016,06,26,14,44,24.20
2016,06,26,14,45,24.10
2016,06,26,14,46,24.10
2016,06,26,14,47,24.00
2016,06,26,14,48,23.90
2016,06,26,14,49,23.80
2016,06,26,14,50,23.80
2016,06,26,14,51,23.80
2016,06,26,14,52,23.80
2016,06,26,14,53,23.80
2016,06,26,14,54,23.80
2016,06,26,14,55,23.90
2016,06,26,14,56,23.80
2016,06,26,14,57,23.80
2016,06,26,14,58,23.80
2016,06,26,14,59,23.80
2016,06,26,15,00,23.80
2016,06,26,15,01,23.80
2016,06,26,15,02,23.90
2016,06,26,15,03,23.90
2016,06,26,15,04,24.00
2016,06,26,15,05,24.00
2016,06,26,15,06,24.00
2016,06,26,15,07,24.10
2016,06,26,15,08,24.20
2016,06,26,15,09,24.20
2016,06,26,15,10,24.30
2016,06,26,15,11,24.30
2016,06,26,15,12,24.30
2016,06,26,15,13,24.20
2016,06,26,15,14,24.10
2016,06,26,15,15,24.00
2016,06,26,15,16,23.90
2016,06,26,15,17,23.90
2016,06,26,15,18,23.90
2016,06,26,15,19,24.00
2016,06,26,15,20,24.00
2016,06,26,15,21,23.90
2016,06,26,15,22,23.90
2016,06,26,15,23,23.80
2016,06,26,15,24,23.70
2016,06,26,15,25,23.60
2016,06,26,15,26,23.60
2016,06,26,15,27,23.70
2016,06,26,15,28,23.80
2016,06,26,15,29,23.90
2016,06,26,15,30,23.90
2016,06,26,15,31,24.00
2016,06,26,15,32,23.90
2016,06,26,15,33,23.90
2016,06,26,15,34,23.90
2016,06,26,15,35,23.90
2016,06,26,15,36,23.90
2016,06,26,15,37,23.90
2016,06,26,15,38,23.90
2016,06,26,15,39,23.90
2016,06,26,15,40,23.80
2016,06,26,15,41,23.80
2016,06,26,15,42,23.70
2016,06,26,15,43,23.70
2016,06,26,15,44,23.70
2016,06,26,15,45,23.70
2016,06,26,15,46,23.80
2016,06,26,15,47,23.90
2016,06,26,15,48,23.90
2016,06,26,15,49,24.00
2016,06,26,15,50,23.90
2016,06,26,15,51,23.90
2016,06,26,15,52,23.90
2016,06,26,15,53,23.80
2016,06,26,15,54,23.80
2016,06,26,15,55,23.80
2016,06,26,15,56,23.80
2016,06,26,15,57,23.80
2016,06,26,15,58,23.80
2016,06,26,15,59,23.80
2016,06,26,16,00,23.90
2016,06,26,16,01,24.00
2016,06,26,16,02,24.00
2016,06,26,16,03,24.10
2016,06,26,16,04,24.10
2016,06,26,16,05,24.20
2016,06,26,16,06,24.20
2016,06,26,16,07,24.10
2016,06,26,16,08,24.10
2016,06,26,16,09,24.00
2016,06,26,16,10,23.90
2016,06,26,16,11,23.80
2016,06,26,16,12,23.70
2016,06,26,16,13,23.60
2016,06,26,16,14,23.50
2016,06,26,16,15,23.40
2016,06,26,16,16,23.40
2016,06,26,16,17,23.40
2016,06,26,16,18,23.40
2016,06,26,16,19,23.40
2016,06,26,16,20,23.30
2016,06,26,16,21,23.20
2016,06,26,16,22,23.10
2016,06,26,16,23,23.10
2016,06,26,16,24,23.10
2016,06,26,16,25,23.10
2016,06,26,16,26,23.20
2016,06,26,16,27,23.20
2016,06,26,16,28,23.20
2016,06,26,16,29,23.20
2016,06,26,16,30,23.20
2016,06,26,16,31,23.20
2016,06,26,16,32,23.20
2016,06,26,16,33,23.20
2016,06,26,16,34,23.10
2016,06,26,16,35,23.10
2016,06,26,16,36,23.00
2016,06,26,16,37,22.90
2016,06,26,16,38,22.80
2016,06,26,16,39,22.80
2016,06,26,16,40,22.70
2016,06,26,16,41,22.70
2016,06,26,16,42,22.60
2016,06,26,16,43,22.60
2016,06,26,16,44,22.50
2016,06,26,16,45,22.50
2016,06,26,16,46,22.40
2016,06,26,16,47,22.40
2016,06,26,16,48,22.50
2016,06,26,16,49,22.50
2016,06,26,16,50,22.50
2016,06,26,16,51,22.50
2016,06,26,16,52,22.50
2016,06,26,16,53,22.50
2016,06,26,16,54,22.60
2016,06,26,16,55,22.70
2016,06,26,16,56,22.70
2016,06,26,16,57,22.70
2016,06,26,16,58,22.70
2016,06,26,16,59,22.70
2016,06,26,17,00,22.70
2016,06,26,17,01,22.60
2016,06,26,17,02,22.60
2016,06,26,17,03,22.50
2016,06,26,17,04,22.50
2016,06,26,17,05,22.40
2016,06,26,17,06,22.40
2016,06,26,17,07,22.40
2016,06,26,17,08,22.40
2016,06,26,17,09,22.30
2016,06,26,17,10,22.30
2016,06,26,17,11,22.30
2016,06,26,17,12,22.30
2016,06,26,17,13,22.30
2016,06,26,17,14,22.40
2016,06,26,17,15,22.50
2016,06,26,17,16,22.50
2016,06,26,17,17,22.60
2016,06,26,17,18,22.70
2016,06,26,17,19,22.80
2016,06,26,17,20,22.90
2016,06,26,17,21,23.00
2016,06,26,17,22,23.10
2016,06,26,17,23,23.10